Flag for Germany Weather past 2 weeks in Porta Westfalica, North Rhine-Westphalia, Germany

Now
46 °F

Partly sunny.


Feels Like: 41 °F
Forecast: 36 / 52 °F
Wind: 10 mph from West

Location: Bueckeburg

Current Time: Mar 6, 2015 at 7:22:58 PM

Latest Report: Mar 6, 2015 at 4:20 PM


Visibility: N/A

Pressure: 30.54 "Hg

Humidity: 66%

Dew point: 36 °F

Location of Porta WestfalicaLocation

Historic Weather in Porta Westfalica — Graph

°F

Porta Westfalica temperature yesterday

Maximum temperature yesterday: 45 °F (at 1:20 PM)
Minimum temperature yesterday: 36 °F (at 5:20 AM)
Average temperature yesterday: 41 °F

Past Weeks' High & Low Weather Summary

 TemperatureHumidityPressure
High50 °F (Mar 1, 1:20 PM)100% (Feb 28, 5:20 AM)30.60 "Hg (Feb 28, 5:20 AM)
Low30 °F (Feb 28, 4:20 AM)46% (Feb 28, 3:20 PM)29.30 "Hg (Feb 21, 6:20 AM)
Average40 °F78%29.88 "Hg
* Reported Feb 19 4:20 PM — Mar 6 4:20 PM, Porta Westfalica, Weather by CustomWeather, © 2015

Note: Actual official high and low records may vary slightly from our data, if they occured in-between our weather recording intervals... More about our weather records

Advertising

Porta Westfalica weather history for previous 24 hours

 ConditionsComfort  
Time TempWeatherWind HumidityBarometerVisibility
4:20 PM
Fri, Mar 6
46 °FPartly sunny.10 mph66%30.54 "HgN/A
3:20 PM46 °FPartly sunny.8 mph66%30.51 "HgN/A
2:20 PM46 °FPartly sunny.12 mph66%30.54 "HgN/A
1:20 PM45 °FPartly sunny.9 mph71%30.54 "HgN/A
12:20 PM45 °FPartly sunny.10 mph71%30.57 "HgN/A
11:20 AM43 °FPartly sunny.8 mph71%30.57 "HgN/A
10:20 AM41 °FOvercast.8 mph76%30.57 "HgN/A
9:20 AM41 °FPartly sunny.9 mph76%30.57 "HgN/A
8:20 AM41 °FPartly sunny.10 mph76%30.54 "HgN/A
7:20 AM41 °FBroken clouds.6 mph76%30.57 "HgN/A
6:20 AM41 °FPassing clouds.7 mph76%30.57 "HgN/A
5:20 AM41 °FPassing clouds.6 mph76%30.57 "HgN/A
4:20 AM41 °FPassing clouds.7 mph76%30.57 "HgN/A
3:20 AM41 °FPassing clouds.7 mph76%30.57 "HgN/A
2:20 AM41 °FPassing clouds.6 mph76%30.57 "HgN/A
1:20 AM41 °FPassing clouds.6 mph76%30.57 "HgN/A
12:20 AM41 °FPassing clouds.5 mph76%30.57 "HgN/A
11:20 PM
Thu, Mar 5
41 °FPassing clouds.6 mph76%30.60 "HgN/A
10:20 PM43 °FPassing clouds.7 mph71%30.57 "HgN/A
9:20 PM43 °FPassing clouds.5 mph71%30.57 "HgN/A
8:20 PM43 °FPassing clouds.3 mph71%30.57 "HgN/A
7:20 PM43 °FPartly cloudy.5 mph71%30.57 "HgN/A
Weather by CustomWeather, © 2015

See weather overviewHow to use our weather pages